Tracking 28799 objects as of 18-Apr-2024
HD Live streaming from Space Station
objects crossing your sky now

STARLINK-3119

Track STARLINK-3119 now!
10-day predictions
STARLINK-3119 is classified as:


NORAD ID: 49145
Int'l Code: 2021-082R
Perigee: 577.3 km
Apogee: 581.2 km
Inclination: 70.0 °
Period: 96.1 minutes
Semi major axis: 6950 km
RCS: Unknown
Launch date: September 14, 2021
Source: United States (US)
Launch site: AIR FORCE WESTERN TEST RANGE (AFWTR)
Your satellite tracking list
Your tracking list is empty




NASA's NSSDC Master Catalog

Two Line Element Set (TLE):
1 49145U 21082R   24108.61846303 -.00001455  00000-0 -11418-3 0  9997
2 49145  70.0016 196.8792 0002810 260.3910  99.6931 14.98322721143445
Source of the keplerian elements: AFSPC